Volver al catálogo

CZ-6A DEB

ActivoPO
NORAD 55225·DEBRIS·🇨🇳 China

Lanzado Nov 11, 2022 desde Taiyuan Satellite Launch Center

Loading…

Próximos Pases (próximas 24 horas)

TLE

ActualizadoSource: Space-Track

Época: Sep 13, 2026, 16:25 UTC

1 55225U 22151WS  26256.68450516  .00005732  00000-0  10740-2 0  9997
2 55225  98.7246 329.1079 0121684  95.5636 265.9455 14.60511329196761

Sigue CZ-6A DEB en tiempo real con AllMySat

Download on the App Store